Location: Starlight Observatory
(38.4029°N, 85.8936°W)
Time: 05:59:51
(UTC-04:00)

Iridium 62 - Visible Passes

Search period start: 17 April 2014 00:00
Search period end: 27 April 2014 00:00
Orbit: 776 x 779 km, 86.4° (Epoch: 16 April)

Date Brightness Start Highest point End Pass type
(mag) Time Alt. Az. Time Alt. Az. Time Alt. Az.
17 Apr 5.9 22:28:49 10° N 22:33:48 54° E 22:33:48 54° E visible
18 Apr 8.2 00:11:08 10° NW 00:14:07 16° W 00:14:18 16° W visible
18 Apr 6.7 21:55:46 10° NNE 22:00:16 29° E 22:00:45 29° E visible
18 Apr 7.4 23:36:28 10° NNW 23:40:53 29° W 23:41:14 28° W visible
19 Apr 7.4 21:23:21 10° NE 21:26:29 16° ENE 21:27:42 15° E visible
19 Apr 6.3 23:02:28 10° NNW 23:07:32 54° W 23:08:12 50° WSW visible
20 Apr 5.7 22:28:51 10° N 22:34:04 81° E 22:35:11 56° SSE visible
21 Apr 8.6 00:13:28 10° WNW 00:13:59 10° WNW 00:14:30 10° W visible
21 Apr 6.2 21:55:33 10° NNE 22:00:29 42° E 22:02:11 32° SE visible
21 Apr 8.0 23:37:09 10° NW 23:40:50 20° W 23:42:41 17° WSW visible
22 Apr 7.0 21:22:41 10° NNE 21:26:46 23° ENE 21:29:12 17° ESE visible
22 Apr 7.1 23:02:49 10° NNW 23:07:33 37° W 23:09:42 26° SW visible
23 Apr 6.0 22:28:58 10° N 22:34:10 70° W 22:36:45 30° SSW visible
24 Apr 5.8 21:55:28 10° N 22:00:39 63° E 22:03:50 23° SSE visible
24 Apr 8.5 23:38:16 10° NW 23:40:44 14° WNW 23:43:12 10° WSW visible
25 Apr 6.6 21:22:19 10° NNE 21:27:01 33° E 21:30:56 14° SE visible
25 Apr 7.8 23:03:19 10° NNW 23:07:32 25° W 23:11:27 11° SW visible
26 Apr 6.7 22:29:13 10° NNW 22:34:12 47° W 22:38:35 13° SSW visible
